User: anonymous   Login
Location: NJAA Observatory
(40.6819°N, 74.8979°W)
Time: 19:15:59
(UTC-04:00)
Language:

Cosmos 220 Rocket - Orbit

View from above orbital plane
View from above orbital plane
View from above satellite
View from above satellite

Ground track
Ground track

The orbit data is extracted from the following two-line orbital elements,

1 03230U 68040B   16177.51494970  .00000206  00000-0  25335-4 0  9997
2 03230  74.0356 236.8643 0032109 283.4346  76.3257 14.89885670582395
Epoch (UTC): 25 June 2016 12:21:31
Eccentricity: 0.0032109
inclination: 74.0356°
perigee height: 576 km
apogee height: 620 km
right ascension of ascending node: 236.8643°
argument of perigee: 283.4346°
revolutions per day: 14.89885670
mean anomaly at epoch: 76.3257°
orbit number at epoch: 58239

The dashed part of the orbit path shows where the satellite is in the earth's shadow,  

DLR